Back to catalog

STARLINK-31965

AliveCommunicationsVLEO
NORAD 59888·PAYLOAD·🇺🇸 United States

Launched May 28, 2024 from Cape Canaveral Space Force Station

Loading…

Next Passes (next 24 hours)

TLE

FreshSource: CelesTrak SupGP

Epoch: Sep 14, 2026, 14:30 UTC

1 59888C 24100D   26257.60465278  .00038478  00000+0  13939-2 0  2578
2 59888  43.0014 138.6933 0001395 260.0749 214.1109 15.27553739    17

Track STARLINK-31965 in real time with AllMySat

Download on the App Store